Weather History for Danbury, CT

Change the Weather History Date:

Sunday, August 11, 2013

  Actual Average Record
Temperature  
Mean Temperature 64 °F -  
Max Temperature 77 °F 81 °F 91 °F (2005)
Min Temperature 51 °F 61 °F 45 °F (1974)
Degree Days  
Heating Degree Days 1    
Growing Degree Days 14 (Base 50)    
Moisture  
Dew Point 54 °F    
Average Humidity 68    
Maximum Humidity 90    
Minimum Humidity 40    
Precipitation  
Precipitation 0.00 in - - ()
Sea Level Pressure  
Sea Level Pressure 30.09 in    
Wind  
Wind Speed 3 mph (WSW)    
Max Wind Speed 8 mph    
Max Gust Speed -    
Visibility 10 miles    
Events      
Averages and records for this station are not official NWS values.
T = Trace of Precipitation, MM = Missing Value Source: NWS Daily Summary

Daily Weather History Graph

Daily Weather History Graph

Search for Another Location

Airport:

Trip Planner

Search our weather history database for the weather conditions in past years. The results will help you decide how hot, cold, wet, or windy it might be!

Date:

Astronomy

Aug. 11, 2013 Rise Set
Actual Time 5:59 AM EDT 7:58 PM EDT
Civil Twilight 5:29 AM EDT 8:28 PM EDT
Nautical Twilight 4:52 AM EDT 9:04 PM EDT
Astronomical Twilight 4:12 AM EDT 9:44 PM EDT
Moon 10:48 AM EDT (8/11) 10:07 PM EDT (8/11)
Length of Visible Light 14h 59m
Length of Day
13h 59m
Waxing Crescent, 22% of the Moon is Illuminated
Aug 11
Waxing Crescent
Aug 14
First Quarter
Aug 20
Full
Aug 28
Last Quarter
Sep 5
New

Hourly Weather History & Observations

Time (EDT) Temp. Dew Point Humidity Pressure Visibility Wind Dir Wind Speed Gust Speed Precip Events Conditions
12:53 AM 57.0 °F 54.0 °F 89% 30.07 in 10.0 mi SW 4.6 mph - N/A   Clear
1:53 AM 57.0 °F 53.1 °F 87% 30.08 in 10.0 mi SW 4.6 mph - N/A   Clear
2:53 AM 55.9 °F 52.0 °F 87% 30.09 in 10.0 mi Calm Calm - N/A   Clear
3:53 AM 57.0 °F 52.0 °F 83% 30.10 in 10.0 mi Calm Calm - N/A   Clear
4:53 AM 54.0 °F 50.0 °F 86% 30.11 in 10.0 mi Calm Calm - N/A   Clear
5:53 AM 51.1 °F 48.0 °F 89% 30.12 in 10.0 mi Calm Calm - N/A   Clear
6:53 AM 55.0 °F 51.1 °F 86% 30.13 in 10.0 mi Calm Calm - N/A   Clear
7:53 AM 62.1 °F 52.0 °F 70% 30.13 in 10.0 mi Calm Calm - N/A   Clear
8:53 AM 66.9 °F 52.0 °F 59% 30.14 in 10.0 mi Variable 3.5 mph - N/A   Clear
9:53 AM 71.1 °F 52.0 °F 51% 30.13 in 10.0 mi Calm Calm - N/A   Clear
10:53 AM 72.0 °F 51.1 °F 48% 30.13 in 10.0 mi Calm Calm - N/A   Clear
11:53 AM 73.0 °F 50.0 °F 44% 30.12 in 10.0 mi Variable 6.9 mph - N/A   Clear
12:53 PM 73.0 °F 51.1 °F 46% 30.11 in 10.0 mi SSW 6.9 mph - N/A   Clear
1:53 PM 75.9 °F 50.0 °F 40% 30.09 in 10.0 mi Calm Calm - N/A   Clear
2:53 PM 75.0 °F 52.0 °F 44% 30.08 in 10.0 mi WSW 8.1 mph - N/A   Mostly Cloudy
3:53 PM 77.0 °F 54.0 °F 45% 30.06 in 10.0 mi Variable 4.6 mph - N/A   Partly Cloudy
4:53 PM 75.9 °F 55.9 °F 50% 30.06 in 10.0 mi West 8.1 mph - N/A   Mostly Cloudy
5:53 PM 75.9 °F 55.9 °F 50% 30.05 in 10.0 mi Variable 5.8 mph - N/A   Clear
6:53 PM 73.9 °F 57.0 °F 55% 30.04 in 10.0 mi WSW 6.9 mph - N/A   Clear
7:53 PM 70.0 °F 59.0 °F 68% 30.05 in 10.0 mi Calm Calm - N/A   Clear
8:53 PM 64.9 °F 59.0 °F 81% 30.06 in 10.0 mi Calm Calm - N/A   Clear
9:53 PM 63.0 °F 59.0 °F 87% 30.07 in 10.0 mi Calm Calm - N/A   Clear
10:53 PM 63.0 °F 59.0 °F 87% 30.06 in 10.0 mi Calm Calm - N/A   Mostly Cloudy
11:53 PM 62.1 °F 59.0 °F 90% 30.06 in 10.0 mi Calm Calm - N/A   Clear